Regional Weather Roundup
Issued by NWS Cleveland, OH

Home | Current Version | Previous Version | Text Only | Print | Product List | Glossary Off
Versions: 1 2 3 4 5 6 7 8 9 10 11 12 13 14 15 16 17 18 19 20 21 22 23 24 25 26 27 28 29 30 31 32 33 34 35 36 37 38 39 40 41 42 43 44 45 46 47 48 49 50

000
ASUS41 KCLE 191510
RWRCLE
OHIO REGIONAL WEATHER ROUNDUP
NATIONAL WEATHER SERVICE WILMINGTON, OH
1100 AM EDT FRI SEP 19 2014

NOTE: "FAIR" INDICATES FEW OR NO CLOUDS BELOW 12,000 FEET WITH NO
SIGNIFICANT WEATHER AND/OR OBSTRUCTIONS TO VISIBILITY.

OHZ001>008-015>018-024>027-034-035-043-044-191600-
   NORTHWEST OHIO

CITY           SKY/WX    TMP DP  RH WIND       PRES   REMARKS
DEFIANCE       SUNNY     60  52  74 SE7       30.25S
FINDLAY        SUNNY     62  51  67 SE6       30.24R
TOLEDO EXPRESS SUNNY     61  51  70 E6        30.25S
TOLEDO METCALF SUNNY     62  50  64 SE5       30.26S
LIMA           SUNNY     63  51  65 E9        30.24R
$$

OHZ009>014-019>023-028>033-038-089-191600-
   NORTHEAST OHIO

CITY           SKY/WX    TMP DP  RH WIND       PRES   REMARKS
CLE-HOPKINS    MOSUNNY   62  47  57 E6        30.27S
CLE-LAKEFRONT  SUNNY     64  46  52 E9        30.25R
CUY CO. ARPT   MOSUNNY   63  52  67 S9        30.26R
LORAIN-ELYRIA  SUNNY     63  52  67 SE5       30.26S
ASHTABULA      SUNNY     59  49  69 E9        30.29R
AKRON-CANTON   MOSUNNY   61  47  59 E9        30.25S
WOOSTER        SUNNY     63  49  60 E8        30.26S
MANSFIELD      SUNNY     61  49  64 E9        30.25S
YOUNGSTOWN     SUNNY     59  48  67 E7        30.26S
$$

OHZ042-051>053-060>062-070>072-077>081-191600-
  SOUTHWEST OHIO

CITY           SKY/WX    TMP DP  RH WIND       PRES   REMARKS
CINC-COVINGTON MOSUNNY   65  51  60 E8        30.18F
CINC-LUNKEN    SUNNY     65  54  67 NE6       30.20S
HAMILTON       SUNNY     66  53  63 E7        30.21S
DAYTON         MOSUNNY   64  51  62 SE10      30.23S
WRIGHT-PAT AFB NOT AVBL
DAYTON GENERAL SUNNY     63  53  70 E7        30.20F
WILMINGTON     SUNNY     63  52  67 E7        30.21S
$$

OHZ036-037-039>041-045>050-054>059-063>069-073>076-082>088-191600-
  CENTRAL AND SOUTHEAST OHIO

CITY           SKY/WX    TMP DP  RH WIND       PRES   REMARKS
COLUMBUS       SUNNY     66  48  52 E8        30.22S
OSU AIRPORT    SUNNY     64  48  56 E9        30.23S
BOLTON FIELD   SUNNY     63  52  67 NE5       30.23S
RICKENBACK AFB SUNNY     62  50  64 NE9       30.22S
NEWARK         SUNNY     63  49  60 E7        30.23S
MARION         SUNNY     63  48  58 E8        30.24S
LANCASTER      SUNNY     66  53  63 VRB6      30.22S
ZANESVILLE     SUNNY     64  49  57 NE8       30.22S
NEW PHILLY     SUNNY     63  51  65 E8        30.24S
$$



USA.gov is the U.S. government's official web portal to all federal, state and local government web resources and services.